SCD 2

Last updated on Wed Sep 17 2025 00:02:30 GMT+0000 (Coordinated Universal Time)

1 25504U 98060A 25259.47437074 .00000399 00000+0 60766-4 0 9997 2 25504 24.9957 319.9436 0017041 110.6332 272.4369 14.45344580420689
UTC large
Height (km)
Speed (km/s)
/
Latitude / Longitude
Inclination (degrees)
Orbital Period (minutes)
Azimuth
Elevation
Range (km)
Doppler Factor

Next 0 passes for location: London (51.5072 / 0.1276)

Sorry there are no passes over London.